Regional Weather Roundup
Issued by NWS

Home | Current Version | Previous Version | Text Only | Print | Product List | Glossary Off
Versions: 1 2 3 4 5 6 7 8 9 10 11 12 13 14 15 16 17 18 19 20 21 22 23 24 25 26 27 28 29 30 31 32 33 34 35 36 37 38 39 40 41 42 43 44 45 46 47 48 49 50

000
ASUS43 KDTX 040410
RWRMI
MICHIGAN HOURLY REGIONAL WEATHER ROUNDUP
NATIONAL WEATHER SERVICE DETROIT/PONTIAC MI
1100 PM EST SAT DEC 03 2016

NOTE: "FAIR" INDICATES FEW OR NO CLOUDS BELOW 12,000 FEET WITH NO
SIGNIFICANT WEATHER AND/OR OBSTRUCTION TO VISIBILITY.

MIZ047>049-052>055-059>063-066>070-074>076-081>083-040500-
SOUTHEAST LOWER MICHIGAN

CITY           SKY/WX    TMP DP  RH WIND       PRES   REMARKS
ADRIAN         CLOUDY    35  26  69 CALM      30.30S
ALMA           CLOUDY    34  29  82 W8        30.28S WCI  28
ANN ARBOR      CLOUDY    34  30  85 SW3       30.28S
BAD AXE        CLOUDY    36  32  85 W3        30.27R
CARO           CLOUDY    35  31  85 SW5       30.26F WCI  31
DETROIT CITY   CLOUDY    37  28  70 W5        30.29S WCI  33
DETROIT        CLOUDY    36  30  79 CALM      30.30R
FLINT          CLOUDY    35  29  78 SW5       30.29R WCI  31
GROSSE ILE     CLOUDY    37  29  74 CALM      30.29S
HILLSDALE      CLOUDY    32  27  80 CALM      30.26S
HOWELL         CLOUDY    35  28  77 CALM      30.27S

CITY           SKY/WX    TMP DP  RH WIND       PRES   REMARKS
JACKSON        CLOUDY    34  25  69 SW5       30.27F WCI  30
LAMBERTVILLE   CLOUDY    36  29  75 CALM      30.30F
LANSING        CLOUDY    35  25  66 SW3       30.28S
LAPEER         NOT AVBL
MASON          CLOUDY    34  28  78 CALM      30.28S
MONROE         CLOUDY    36  28  73 SW3       30.29S
MT. CLEMENS    CLOUDY    37  30  77 SW3       30.26S
PONTIAC        CLOUDY    35  28  75 W5        30.26S WCI  31
PORT HOPE        N/A     35  34  96 SW7       30.24R WCI  29
PORT HURON     CLOUDY    36  32  87 CALM      30.28R
TRI CITIES     CLOUDY    36  31  82 SW6       30.28S WCI  31
MIDLAND        CLOUDY    36  29  74 W3        30.27R
TROY           CLOUDY    37  27  68 CALM      30.30S
SAGINAW HB     CLOUDY    36  30  80 SW7       30.28R WCI  30
$$
MIZ043>046-050>051-056>058-064>065-071>073-077>080-040500-
SOUTHWEST LOWER MICHIGAN

CITY           SKY/WX    TMP DP  RH WIND       PRES   REMARKS
BATTLE CREEK   CLOUDY    34  28  79 SW3       30.27F
BENTON HARBOR  CLOUDY    35  25  66 S6        30.28S WCI  30
BIG RAPIDS     CLOUDY    33  28  79 CALM      30.25S
COLDWATER      CLOUDY    34  27  76 CALM      30.28S
FREMONT        CLOUDY    33  25  71 CALM      30.26S
HOLLAND        CLOUDY    35  29  78 S5        30.27F WCI  31
GRAND RAPIDS   CLOUDY    34  27  75 S3        30.27S
IONIA          CLOUDY    34  28  77 SW3       30.26F
KALAMAZOO      CLOUDY    35  24  64 S6        30.27F WCI  30
LUDINGTON      CLOUDY    33  28  83 SE5       30.26S WCI  28
MARSHALL       CLOUDY    34  27  74 CALM      30.27S
MOUNT PLEASANT CLOUDY    34  29  80 W3        30.26S
MUSKEGON       CLOUDY    35  28  75 SE5       30.27F WCI  31
SOUTH HAVEN    CLOUDY    36  29  78 S6        30.27F WCI  31
$$
MIZ016>042-040500-
NORTHERN LOWER MICHIGAN

CITY           SKY/WX    TMP DP  RH WIND       PRES   REMARKS
ALPENA         CLOUDY    35  31  85 W3        30.26R
BEAVER ISLAND  CLOUDY    35  32  90 SE5       30.23F WCI  31
BELLAIRE       CLOUDY    33  33  99 CALM      30.25S FOG
CADILLAC       CLOUDY    32  29  87 SW3       30.22S
CHARLEVOIX     CLOUDY    35  33  92 SE3       30.25F
FRANKFORT      CLOUDY    36  31  82 CALM      30.24F
GAYLORD        CLOUDY    34  30  85 W3        30.21F
GRAYLING       CLOUDY    33  32  94 W5        30.24S WCI  29
HARBOR SPRINGS CLOUDY    35  32  91 CALM      30.23F
HOUGHTON LAKE  CLOUDY    33  29  85 CALM      30.24F
MANISTEE       CLOUDY    34  28  79 CALM      30.25F
OSCODA         CLOUDY    36  34  92 MISG      30.25R
PELLSTON       CLOUDY    33  31  92 CALM      30.24F
ROGERS CITY    CLOUDY    36  31  83 CALM      30.25S
TRAVERSE CITY  CLOUDY    35  32  88 CALM      30.24S
$$
MIZ007>008-015-040500-
EASTERN UPPER MICHIGAN

CITY           SKY/WX    TMP DP  RH WIND       PRES   REMARKS
KINROSS        CLOUDY    32  30  92 NE3       30.24S
MACKINAC ISLAN CLOUDY    35  30  85 CALM      30.24S
NEWBERRY       CLOUDY    32  31  97 N6        30.22F WCI  26
S. S. MARIE    CLOUDY    33  27  78 CALM      30.24R
MUNISING         N/A     33  32  96 CALM      30.21F
$$
MIZ004>006-011>014-085-040500-
CENTRAL UPPER MICHIGAN

CITY           SKY/WX    TMP DP  RH WIND       PRES   REMARKS
MANISTIQUE     CLOUDY    32  30  93 CALM      30.22F
ESCANABA       CLOUDY    33  29  85 W5        30.23F WCI  29
MENOMINEE      CLOUDY    30  22  72 SW5       30.25R WCI  25
SAWYER-GWINN   CLOUDY    31  28  90 CALM      30.19F
$$
MIZ001>003-009>011-084-040500-
WESTERN UPPER MICHIGAN

CITY           SKY/WX    TMP DP  RH WIND       PRES   REMARKS
IRON MOUNTAIN  CLOUDY    31  25  78 CALM      30.18F
HOUGHTON       CLOUDY    31  26  82 W3        30.18F
COPPER HARBOR    N/A     32  31  96 CALM      30.20F
IRONWOOD       CLOUDY    27  23  85 SE5       30.17F WCI  22
$$

ABBREVIATIONS USED IN REMARKS
   TC - TEMPERATURE IN CELSIUS
  WCI - WIND CHILL INDEX
   HX - HEAT INDEX
  VSB - VISIBILITY





USA.gov is the U.S. government's official web portal to all federal, state and local government web resources and services.